Погода в Пересна

Россия / Смоленская область     54°31′12″N   32°24′38″E
темп.,
°C
ветер,
м/с
пор.,
м/с
влажн.,
%
обл.,
%
осадки,
мм/ч
давл.,
гПа
погр.,
м
20 сентября, пн
пн2000:00+5всв71394100 0.6 1011816
03:00+6всв61196100 0.8 1010688
06:00+6всв61197100 0.2 1009540
09:00+6св61296100 0.5 1009605
12:00+7всв71395100 2.0 1009648
15:00+7всв71395100 3.7 1009644
18:00+6всв61295100 1.3 1009570
21:00+6всв61196100 2.5 1010571
21 сентября, вт
вт2100:00+6всв61097100 0.4 1010553
03:00+6св5998100 0.9 1010456
06:00+6св4897100 0.3 1010413
09:00+6ссв4897100 1.0 1010355
12:00+6ссв4897100 1.1 1010417
15:00+6ссв4897100 1.9 1011467
18:00+6с4897100 0.6 1011431
21:00+6с5898100 1.1 1012394
22 сентября, ср
ср2200:00+6с4798100 0.3 1012320
03:00+6с4798100 0.8 1012359
06:00+5с4698100 0.0 1012356
09:00+5с4697100 0.2 1013439
12:00+4с4595100 0.8 1014360
15:00+4с3597100 0.9 1014428
18:00+4ссз2498100 0.0 1014385
21:00+5ссз2499100 0.0 1015310
23 сентября, чт
чт2300:00+4ссв3597100 0.4 1015289
03:00+3ссв2397100 1.2 1014190
06:00+3с2297100 0.4 1014162
09:00+4ссв1195100 0.6 1015169
12:00+5з0192100 0.0 1014358
15:00+7з1281100 0.0 1014609
18:00+6зсз2391100 0.1 1014137
21:00+5з1293100 0.1 101479
24 сентября, пт
пт2400:00+5юз129298 0.4 101376
03:00+5ю2592100 0.4 1012170
06:00+4ю379486 0.0 1011268
09:00+5ю51091100 0.0 1009552
12:00+7ю71081100 0.0 1006957
15:00+7ююв71287100 1.1 10041046
18:00+7ю81394100 2.7 1003807
21:00+7ююз5995100 2.9 1003544